{"data":{"norad_id":67884,"epoch":"2026-09-19T00:45:30.969216Z","epoch_age_seconds":190132,"freshness":"STALE","line1":"1 67884U 26035F   26262.03160844  .00025361  00000+0  78445-3 0  9990","line2":"2 67884  97.2859 193.8341 0002201 108.5061 251.6421 15.33476875 33613","mean_motion":15.33476875,"eccentricity":0.0002201,"inclination_deg":97.2859,"raan_deg":193.8341,"arg_perigee_deg":108.5061,"mean_anomaly_deg":251.6421,"bstar":0.00078445,"rev_number":3361,"period_min":93.904252713299,"perigee_km":463.94206541384,"apogee_km":466.95461167987,"semimajor_km":6843.5853385469,"source":"CELESTRAK","updated_at":"2026-09-20T09:00:43.696138Z"}}